Location: Aufkirchen
(47.9603°N, 11.3653°E)
Time: 19:22:52
(UTC+01:00)

Vanguard 2 - All Passes

Search period start: 04 December 2020 00:00
Search period end: 14 December 2020 00:00
Orbit: 554 x 2937 km, 32.9° (Epoch: 04 December)

Date Brightness Start Highest point End Pass type
(mag) Time Alt. Az. Time Alt. Az. Time Alt. Az.
04 Dec - 06:35:19 10° S 06:37:21 11° SSE 06:39:14 10° SSE visible
04 Dec - 08:40:39 10° SW 08:45:38 18° S 08:49:28 10° SE daylight
04 Dec - 10:49:58 10° SW 10:53:13 15° SSW 10:55:56 10° SSE daylight
05 Dec - 06:49:57 10° SSW 06:55:01 15° SSE 06:59:06 10° SE visible
05 Dec - 08:57:44 10° SW 09:03:15 20° S 09:07:21 10° SE daylight
05 Dec - 11:07:51 10° SW 11:10:41 14° SSW 11:13:07 10° SSE daylight
06 Dec - 07:06:04 10° SSW 07:12:41 19° SSE 07:17:39 10° SE visible
06 Dec - 09:15:05 10° SW 09:20:49 21° S 09:25:03 10° SE daylight
06 Dec - 11:26:10 10° SW 11:28:06 12° SSW 11:29:51 10° S daylight
07 Dec - 05:16:32 10° S 05:21:33 13° SSE 05:25:47 10° SE visible
07 Dec - 07:22:45 10° SW 07:30:20 22° S 07:35:45 10° SE daylight
07 Dec - 09:32:38 10° SW 09:38:22 21° S 09:42:34 10° SE daylight
08 Dec - 05:31:40 10° SSW 05:39:12 18° SSE 05:45:03 10° ESE visible
08 Dec - 07:39:48 10° SW 07:47:58 25° S 07:53:38 10° SE daylight
08 Dec - 09:50:20 10° WSW 09:55:51 20° SSW 09:59:57 10° SSE daylight
09 Dec - 05:47:44 10° SSW 05:56:51 22° SSE 06:03:32 10° ESE visible
09 Dec - 07:57:06 10° SW 08:05:35 27° S 08:11:20 10° SE daylight
09 Dec - 10:08:14 10° WSW 10:13:17 19° SSW 10:17:08 10° SSE daylight
10 Dec - 03:58:19 10° S 04:05:13 15° SSE 04:11:03 10° ESE visible
10 Dec - 06:04:21 10° SW 06:14:30 26° SSE 06:21:37 10° ESE visible
10 Dec - 08:14:35 10° WSW 08:23:09 28° S 08:28:56 10° SE daylight
10 Dec - 10:26:23 10° WSW 10:30:38 16° SSW 10:34:02 10° S daylight
11 Dec - 04:13:20 10° SSW 04:22:49 20° SSE 04:30:18 10° ESE visible
11 Dec - 06:21:18 10° SW 06:32:08 30° S 06:39:32 10° ESE visible
11 Dec - 08:32:13 10° WSW 08:40:41 28° SSW 08:46:24 10° SE daylight
11 Dec - 10:45:01 10° WSW 10:47:55 13° SSW 10:50:24 10° S daylight
12 Dec - 02:29:45 10° SSE 02:30:57 10° SE 02:32:07 10° SE visible
12 Dec - 04:29:16 10° SSW 04:40:25 24° SSE 04:48:49 10° ESE visible
12 Dec - 06:38:30 10° SW 06:49:46 33° S 06:57:17 10° ESE visible
12 Dec - 08:50:00 10° WSW 08:58:09 26° SSW 09:03:44 10° SE daylight
13 Dec - 02:40:37 10° S 02:48:25 15° SE 02:55:16 10° ESE visible
13 Dec - 04:45:43 10° SW 04:58:02 29° SSE 05:06:59 10° ESE visible
13 Dec - 06:55:56 10° WSW 07:07:22 34° S 07:14:55 10° ESE visible
13 Dec - 09:07:55 10° WSW 09:15:32 24° SSW 09:20:54 10° SSE daylight
